Regional Weather Roundup
Issued by NWS

Home | Current Version | Previous Version | Text Only | Print | Product List | Glossary Off
Versions: 1 2 3 4 5 6 7 8 9 10 11 12 13 14 15 16 17 18 19 20 21 22 23 24 25 26 27 28 29 30 31 32 33 34 35 36 37 38 39 40 41 42 43 44 45 46 47 48 49 50

000
ASUS43 KLMK 021510
RWRKY
KENTUCKY REGIONAL WEATHER ROUNDUP
NATIONAL WEATHER SERVICE LOUISVILLE KY
1000 AM EST FRI DEC 02 2016

NOTE "FAIR" INDICATES FEW OR NO CLOUDS BELOW 12,000 FEET
WITH NO SIGNIFICANT WEATHER AND/OR OBSTRUCTIONS TO VISIBILITY.

KYZ001>023-026-027-061>063-070>075-021600-
WESTERN AND SOUTH CENTRAL KENTUCKY

CITY           SKY/WX    TMP DP  RH WIND       PRES   REMARKS
PADUCAH        SUNNY     42  33  70 CALM      30.27R
HENDERSON      SUNNY     36  30  80 SW3       30.26R
OWENSBORO      SUNNY     39  35  86 SW3       30.26R
HOPKINSVILLE   SUNNY     39  34  82 SW5       30.26R
BOWLING GREEN  SUNNY     40  31  70 SW3       30.26R
GLASGOW        SUNNY     38  32  81 SW3       30.24R
$$

KYZ024-025-028>034-038-045-046-053-021600-
NORTH CENTRAL KENTUCKY

CITY           SKY/WX    TMP DP  RH WIND       PRES   REMARKS
LOUISVILLE/SDF SUNNY     37  30  75 SW5       30.24R WCI  33
LOUISVILLE/LOU SUNNY     38  31  76 VRB3      30.24R
FORT KNOX      SUNNY     39  31  73 S2        30.22R
$$

KYZ035>037-039>044-047>052-055>060-089>105-021600-
NORTHEAST KENTUCKY

CITY           SKY/WX    TMP DP  RH WIND       PRES   REMARKS
LEXINGTON      SUNNY     37  30  75 SW7       30.22R WCI  32
COVINGTON      CLOUDY    37  29  72 W10       30.18R WCI  30
FRANKFORT      MOSUNNY   36  29  75 SW8       30.22R WCI  30
$$

KYZ054-064>069-076>088-106>120-021600-
SOUTHEAST KENTUCKY

CITY           SKY/WX    TMP DP  RH WIND       PRES   REMARKS
JACKSON        SUNNY     36  29  75 VRB5      30.21R WCI  32
LONDON         SUNNY     38  30  73 VRB3      30.22R
SOMERSET       SUNNY     34  34 100 CALM      30.25S
MIDDLESBORO    PTSUNNY   30  30 100 CALM      30.26R FOG
MONTICELLO     SUNNY     40  32  73 W10       30.25S WCI  33
$$





USA.gov is the U.S. government's official web portal to all federal, state and local government web resources and services.